Year,Month,Day,Hour,Minute,Value (Times are PST for windspeed in km/hr)
2008,02,06,00,00,13.70
2008,02,06,00,01,13.20
2008,02,06,00,02,8.40
2008,02,06,00,03,11.60
2008,02,06,00,04,6.30
2008,02,06,00,05,10.40
2008,02,06,00,06,14.80
2008,02,06,00,07,10.70
2008,02,06,00,08,9.30
2008,02,06,00,09,6.30
2008,02,06,00,10,8.10
2008,02,06,00,11,9.30
2008,02,06,00,12,9.20
2008,02,06,00,13,5.70
2008,02,06,00,14,12.60
2008,02,06,00,15,13.70
2008,02,06,00,16,13.50
2008,02,06,00,17,15.00
2008,02,06,00,18,14.30
2008,02,06,00,19,10.00
2008,02,06,00,20,9.00
2008,02,06,00,21,15.00
2008,02,06,00,22,13.90
2008,02,06,00,23,16.70
2008,02,06,00,24,7.60
2008,02,06,00,25,14.90
2008,02,06,00,26,12.30
2008,02,06,00,27,9.90
2008,02,06,00,28,15.00
2008,02,06,00,29,10.10
2008,02,06,00,30,12.70
2008,02,06,00,31,16.20
2008,02,06,00,32,14.80
2008,02,06,00,33,18.50
2008,02,06,00,34,15.80
2008,02,06,00,35,11.20
2008,02,06,00,36,22.30
2008,02,06,00,37,15.30
2008,02,06,00,38,11.10
2008,02,06,00,39,15.10
2008,02,06,00,40,15.40
2008,02,06,00,41,13.80
2008,02,06,00,42,13.20
2008,02,06,00,43,9.30
2008,02,06,00,44,9.50
2008,02,06,00,45,11.40
2008,02,06,00,46,11.40
2008,02,06,00,47,11.70
2008,02,06,00,48,11.90
2008,02,06,00,49,10.60
2008,02,06,00,50,12.10
2008,02,06,00,51,9.10
2008,02,06,00,52,13.10
2008,02,06,00,53,9.90
2008,02,06,00,54,14.80
2008,02,06,00,55,13.90
2008,02,06,00,56,15.20
2008,02,06,00,57,14.60
2008,02,06,00,58,12.30
2008,02,06,00,59,12.60
2008,02,06,01,00,9.60
2008,02,06,01,01,13.90
2008,02,06,01,02,16.40
2008,02,06,01,03,16.00
2008,02,06,01,04,11.60
2008,02,06,01,05,13.50
2008,02,06,01,06,13.10
2008,02,06,01,07,9.40
2008,02,06,01,08,13.40
2008,02,06,01,09,14.80
2008,02,06,01,10,13.20
2008,02,06,01,11,10.40
2008,02,06,01,12,10.00
2008,02,06,01,13,7.80
2008,02,06,01,14,9.30
2008,02,06,01,15,9.00
2008,02,06,01,16,8.40
2008,02,06,01,17,9.50
2008,02,06,01,18,8.50
2008,02,06,01,19,10.70
2008,02,06,01,20,10.70
2008,02,06,01,21,10.60
2008,02,06,01,22,7.20
2008,02,06,01,23,8.10
2008,02,06,01,24,10.30
2008,02,06,01,25,8.80
2008,02,06,01,26,13.10
2008,02,06,01,27,18.60
2008,02,06,01,28,13.40
2008,02,06,01,29,14.10
2008,02,06,01,30,11.40
2008,02,06,01,31,12.90
2008,02,06,01,32,13.60
2008,02,06,01,33,9.10
2008,02,06,01,34,12.90
2008,02,06,01,35,19.20
2008,02,06,01,36,13.50
2008,02,06,01,37,16.00
2008,02,06,01,38,17.70
2008,02,06,01,39,12.60
2008,02,06,01,40,15.50
2008,02,06,01,41,16.80
2008,02,06,01,42,14.90
2008,02,06,01,43,14.90
2008,02,06,01,44,16.50
2008,02,06,01,45,13.10
2008,02,06,01,46,18.70
2008,02,06,01,47,17.00
2008,02,06,01,48,16.40
2008,02,06,01,49,18.00
2008,02,06,01,50,11.00
2008,02,06,01,51,10.40
2008,02,06,01,52,10.40
2008,02,06,01,53,17.70
2008,02,06,01,54,14.20
2008,02,06,01,55,14.30
2008,02,06,01,56,15.10
2008,02,06,01,57,12.80
2008,02,06,01,58,8.20
2008,02,06,01,59,6.70
2008,02,06,02,00,6.90
2008,02,06,02,01,10.90
2008,02,06,02,02,7.90
2008,02,06,02,03,13.80
2008,02,06,02,04,6.40
2008,02,06,02,05,7.20
2008,02,06,02,06,11.40
2008,02,06,02,07,7.20
2008,02,06,02,08,7.50
2008,02,06,02,09,9.40
2008,02,06,02,10,7.00
2008,02,06,02,11,9.00
2008,02,06,02,12,8.10
2008,02,06,02,13,8.00
2008,02,06,02,14,8.10
2008,02,06,02,15,9.10
2008,02,06,02,16,9.50
2008,02,06,02,17,18.10
2008,02,06,02,18,12.60
2008,02,06,02,19,8.90
2008,02,06,02,20,12.00
2008,02,06,02,21,21.40
2008,02,06,02,22,13.90
2008,02,06,02,23,12.30
2008,02,06,02,24,12.90
2008,02,06,02,25,13.70
2008,02,06,02,26,13.90
2008,02,06,02,27,10.40
2008,02,06,02,28,15.10
2008,02,06,02,29,14.40
2008,02,06,02,30,16.80
2008,02,06,02,31,21.40
2008,02,06,02,32,16.70
2008,02,06,02,33,13.80
2008,02,06,02,34,15.20
2008,02,06,02,35,12.90
2008,02,06,02,36,10.90
2008,02,06,02,37,12.90
2008,02,06,02,38,10.20
2008,02,06,02,39,12.30
2008,02,06,02,40,9.50
2008,02,06,02,41,13.00
2008,02,06,02,42,18.10
2008,02,06,02,43,15.60
2008,02,06,02,44,15.10
2008,02,06,02,45,12.50
2008,02,06,02,46,6.30
2008,02,06,02,47,10.20
2008,02,06,02,48,8.20
2008,02,06,02,49,8.90
2008,02,06,02,50,18.90
2008,02,06,02,51,16.10
2008,02,06,02,52,14.70
2008,02,06,02,53,9.40
2008,02,06,02,54,12.70
2008,02,06,02,55,10.10
2008,02,06,02,56,12.60
2008,02,06,02,57,19.40
2008,02,06,02,58,13.90
2008,02,06,02,59,14.60
2008,02,06,03,00,13.30
2008,02,06,03,01,20.60
2008,02,06,03,02,19.70
2008,02,06,03,03,11.30
2008,02,06,03,04,16.10
2008,02,06,03,05,17.40
2008,02,06,03,06,17.60
2008,02,06,03,07,25.10
2008,02,06,03,08,25.50
2008,02,06,03,09,21.10
2008,02,06,03,10,18.60
2008,02,06,03,11,17.20
2008,02,06,03,12,16.00
2008,02,06,03,13,19.50
2008,02,06,03,14,20.40
2008,02,06,03,15,17.80
2008,02,06,03,16,15.00
2008,02,06,03,17,7.30
2008,02,06,03,18,12.10
2008,02,06,03,19,8.50
2008,02,06,03,20,16.40
2008,02,06,03,21,11.60
2008,02,06,03,22,11.40
2008,02,06,03,23,7.50
2008,02,06,03,24,11.30
2008,02,06,03,25,13.80
2008,02,06,03,26,9.70
2008,02,06,03,27,15.30
2008,02,06,03,28,14.20
2008,02,06,03,29,13.00
2008,02,06,03,30,9.70
2008,02,06,03,31,6.20
2008,02,06,03,32,11.10
2008,02,06,03,33,16.00
2008,02,06,03,34,9.70
2008,02,06,03,35,6.30
2008,02,06,03,36,8.50
2008,02,06,03,37,7.10
2008,02,06,03,38,6.10
2008,02,06,03,39,4.40
2008,02,06,03,40,6.80
2008,02,06,03,41,7.30
2008,02,06,03,42,4.60
2008,02,06,03,43,10.70
2008,02,06,03,44,8.20
2008,02,06,03,45,9.70
2008,02,06,03,46,11.10
2008,02,06,03,47,5.30
2008,02,06,03,48,5.60
2008,02,06,03,49,7.50
2008,02,06,03,50,6.40
2008,02,06,03,51,2.40
2008,02,06,03,52,4.50
2008,02,06,03,53,5.30
2008,02,06,03,54,5.50
2008,02,06,03,55,3.90
2008,02,06,03,56,4.60
2008,02,06,03,57,3.30
2008,02,06,03,58,5.60
2008,02,06,03,59,7.20
2008,02,06,04,00,4.20
2008,02,06,04,01,5.80
2008,02,06,04,02,10.50
2008,02,06,04,03,6.90
2008,02,06,04,04,11.40
2008,02,06,04,05,4.80
2008,02,06,04,06,3.50
2008,02,06,04,07,1.00
2008,02,06,04,08,4.60
2008,02,06,04,09,4.20
2008,02,06,04,10,3.10
2008,02,06,04,11,3.20
2008,02,06,04,12,2.50
2008,02,06,04,13,3.80
2008,02,06,04,14,3.20
2008,02,06,04,15,1.90
2008,02,06,04,16,0.60
2008,02,06,04,17,0.00
2008,02,06,04,18,0.00
2008,02,06,04,19,0.00
2008,02,06,04,20,1.50
2008,02,06,04,21,5.10
2008,02,06,04,22,4.50
2008,02,06,04,23,2.10
2008,02,06,04,24,6.90
2008,02,06,04,25,7.20
2008,02,06,04,26,5.70
2008,02,06,04,27,5.70
2008,02,06,04,28,5.50
2008,02,06,04,29,6.80
2008,02,06,04,30,8.10
2008,02,06,04,31,6.20
2008,02,06,04,32,3.80
2008,02,06,04,33,5.10
2008,02,06,04,34,3.90
2008,02,06,04,35,3.40
2008,02,06,04,36,5.80
2008,02,06,04,37,2.60
2008,02,06,04,38,0.60
2008,02,06,04,39,0.20
2008,02,06,04,40,3.10
2008,02,06,04,41,5.50
2008,02,06,04,42,2.50
2008,02,06,04,43,0.90
2008,02,06,04,44,4.20
2008,02,06,04,45,2.90
2008,02,06,04,46,3.00
2008,02,06,04,47,0.20
2008,02,06,04,48,0.10
2008,02,06,04,49,0.00
2008,02,06,04,50,0.10
2008,02,06,04,51,2.70
2008,02,06,04,52,0.90
2008,02,06,04,53,0.20
2008,02,06,04,54,0.80
2008,02,06,04,55,0.90
2008,02,06,04,56,0.00
2008,02,06,04,57,1.90
2008,02,06,04,58,1.70
2008,02,06,04,59,0.40
2008,02,06,05,00,1.50
2008,02,06,05,01,1.90
2008,02,06,05,02,3.10
2008,02,06,05,03,0.20
2008,02,06,05,04,0.60
2008,02,06,05,05,3.80
2008,02,06,05,06,2.50
2008,02,06,05,07,0.30
2008,02,06,05,08,0.60
2008,02,06,05,09,1.50
2008,02,06,05,10,3.10
2008,02,06,05,11,2.00
2008,02,06,05,12,2.30
2008,02,06,05,13,4.00
2008,02,06,05,14,8.50
2008,02,06,05,15,5.00
2008,02,06,05,16,5.70
2008,02,06,05,17,2.80
2008,02,06,05,18,4.70
2008,02,06,05,19,1.40
2008,02,06,05,20,3.40
2008,02,06,05,21,6.70
2008,02,06,05,22,6.40
2008,02,06,05,23,5.30
2008,02,06,05,24,4.00
2008,02,06,05,25,9.40
2008,02,06,05,26,4.60
2008,02,06,05,27,6.80
2008,02,06,05,28,7.10
2008,02,06,05,29,4.70
2008,02,06,05,30,4.90
2008,02,06,05,31,4.70
2008,02,06,05,32,1.00
2008,02,06,05,33,4.00
2008,02,06,05,34,7.60
2008,02,06,05,35,4.80
2008,02,06,05,36,4.10
2008,02,06,05,37,0.00
2008,02,06,05,38,1.90
2008,02,06,05,39,4.10
2008,02,06,05,40,3.30
2008,02,06,05,41,0.80
2008,02,06,05,42,0.20
2008,02,06,05,43,0.60
2008,02,06,05,44,3.10
2008,02,06,05,45,0.70
2008,02,06,05,46,1.50
2008,02,06,05,47,1.50
2008,02,06,05,48,3.20
2008,02,06,05,49,2.50
2008,02,06,05,50,8.00
2008,02,06,05,51,6.30
2008,02,06,05,52,2.40
2008,02,06,05,53,3.10
2008,02,06,05,54,5.60
2008,02,06,05,55,6.40
2008,02,06,05,56,4.70
2008,02,06,05,57,9.80
2008,02,06,05,58,7.60
2008,02,06,05,59,10.00
2008,02,06,06,00,6.20
2008,02,06,06,01,15.60
2008,02,06,06,02,6.80
2008,02,06,06,03,6.50
2008,02,06,06,04,7.60
2008,02,06,06,05,7.80
2008,02,06,06,06,12.60
2008,02,06,06,07,11.60
2008,02,06,06,08,10.50
2008,02,06,06,09,5.40
2008,02,06,06,10,7.30
2008,02,06,06,11,6.40
2008,02,06,06,12,9.60
2008,02,06,06,13,11.30
2008,02,06,06,14,12.20
2008,02,06,06,15,16.90
2008,02,06,06,16,9.50
2008,02,06,06,17,9.70
2008,02,06,06,18,9.00
2008,02,06,06,19,9.70
2008,02,06,06,20,9.60
2008,02,06,06,21,7.60
2008,02,06,06,22,11.10
2008,02,06,06,23,7.50
2008,02,06,06,24,6.00
2008,02,06,06,25,4.10
2008,02,06,06,26,2.70
2008,02,06,06,27,5.30
2008,02,06,06,28,7.50
2008,02,06,06,29,5.30
2008,02,06,06,30,5.30
2008,02,06,06,31,6.80
2008,02,06,06,32,2.30
2008,02,06,06,33,6.20
2008,02,06,06,34,3.60
2008,02,06,06,35,13.30
2008,02,06,06,36,3.40
2008,02,06,06,37,4.50
2008,02,06,06,38,4.30
2008,02,06,06,39,6.10
2008,02,06,06,40,10.10
2008,02,06,06,41,5.30
2008,02,06,06,42,9.30
2008,02,06,06,43,6.40
2008,02,06,06,44,9.60
2008,02,06,06,45,10.50
2008,02,06,06,46,16.00
2008,02,06,06,47,15.00
2008,02,06,06,48,16.60
2008,02,06,06,49,9.30
2008,02,06,06,50,12.30
2008,02,06,06,51,9.00
2008,02,06,06,52,4.50
2008,02,06,06,53,14.40
2008,02,06,06,54,9.00
2008,02,06,06,55,5.10
2008,02,06,06,56,5.60
2008,02,06,06,57,8.00
2008,02,06,06,58,4.50
2008,02,06,06,59,1.80
2008,02,06,07,00,3.90
2008,02,06,07,01,4.20
2008,02,06,07,02,4.20
2008,02,06,07,03,6.30
2008,02,06,07,04,3.80
2008,02,06,07,05,2.10
2008,02,06,07,06,3.40
2008,02,06,07,07,2.60
2008,02,06,07,08,6.40
2008,02,06,07,09,5.60
2008,02,06,07,10,4.20
2008,02,06,07,11,3.80
2008,02,06,07,12,5.10
2008,02,06,07,13,3.20
2008,02,06,07,14,3.40
2008,02,06,07,15,5.50
2008,02,06,07,16,5.00
2008,02,06,07,17,6.50
2008,02,06,07,18,8.00
2008,02,06,07,19,9.70
2008,02,06,07,20,9.00
2008,02,06,07,21,7.40
2008,02,06,07,22,6.80
2008,02,06,07,23,5.80
2008,02,06,07,24,5.90
2008,02,06,07,25,6.80
2008,02,06,07,26,8.30
2008,02,06,07,27,5.40
2008,02,06,07,28,7.70
2008,02,06,07,29,5.90
2008,02,06,07,30,4.60
2008,02,06,07,31,1.60
2008,02,06,07,32,2.10
2008,02,06,07,33,0.00
2008,02,06,07,34,1.80
2008,02,06,07,35,0.10
2008,02,06,07,36,0.10
2008,02,06,07,37,3.30
2008,02,06,07,38,3.70
2008,02,06,07,39,3.20
2008,02,06,07,40,0.80
2008,02,06,07,41,1.30
2008,02,06,07,42,6.40
2008,02,06,07,43,9.90
2008,02,06,07,44,6.10
2008,02,06,07,45,5.70
2008,02,06,07,46,6.10
2008,02,06,07,47,3.50
2008,02,06,07,48,6.20
2008,02,06,07,49,6.90
2008,02,06,07,50,11.10
2008,02,06,07,51,13.60
2008,02,06,07,52,17.60
2008,02,06,07,53,11.80
2008,02,06,07,54,9.10
2008,02,06,07,55,7.60
2008,02,06,07,56,7.90
2008,02,06,07,57,6.90
2008,02,06,07,58,8.20
2008,02,06,07,59,12.90
2008,02,06,08,00,10.10
2008,02,06,08,01,5.10
2008,02,06,08,02,9.90
2008,02,06,08,03,11.40
2008,02,06,08,04,11.30
2008,02,06,08,05,7.60
2008,02,06,08,06,8.90
2008,02,06,08,07,10.40
2008,02,06,08,08,10.90
2008,02,06,08,09,12.40
2008,02,06,08,10,13.20
2008,02,06,08,11,10.40
2008,02,06,08,12,17.90
2008,02,06,08,13,15.30
2008,02,06,08,14,18.00
2008,02,06,08,15,10.90
2008,02,06,08,16,11.50
2008,02,06,08,17,9.10
2008,02,06,08,18,8.50
2008,02,06,08,19,18.50
2008,02,06,08,20,19.20
2008,02,06,08,21,9.80
2008,02,06,08,22,14.10
2008,02,06,08,23,10.70
2008,02,06,08,24,17.30
2008,02,06,08,25,13.50
2008,02,06,08,26,13.80
2008,02,06,08,27,22.40
2008,02,06,08,28,17.60
2008,02,06,08,29,16.30
2008,02,06,08,30,13.30
2008,02,06,08,31,15.40
2008,02,06,08,32,16.20
2008,02,06,08,33,14.30
2008,02,06,08,34,18.60
2008,02,06,08,35,14.10
2008,02,06,08,36,11.40
2008,02,06,08,37,11.10
2008,02,06,08,38,11.30
2008,02,06,08,39,14.70
2008,02,06,08,40,15.90
2008,02,06,08,41,20.60
2008,02,06,08,42,14.20
2008,02,06,08,43,15.90
2008,02,06,08,44,11.40
2008,02,06,08,45,17.90
2008,02,06,08,46,17.70
2008,02,06,08,47,13.60
2008,02,06,08,48,13.00
2008,02,06,08,49,12.00
2008,02,06,08,50,4.90
2008,02,06,08,51,8.90
2008,02,06,08,52,9.90
2008,02,06,08,53,8.00
2008,02,06,08,54,12.00
2008,02,06,08,55,11.40
2008,02,06,08,56,11.10
2008,02,06,08,57,6.80
2008,02,06,08,58,11.30
2008,02,06,08,59,7.10
2008,02,06,09,00,7.20
2008,02,06,09,01,8.90
2008,02,06,09,02,7.50
2008,02,06,09,03,7.20
2008,02,06,09,04,8.00
2008,02,06,09,05,10.00
2008,02,06,09,06,9.30
2008,02,06,09,07,11.40
2008,02,06,09,08,9.90
2008,02,06,09,09,16.60
2008,02,06,09,10,10.90
2008,02,06,09,11,15.50
2008,02,06,09,12,11.00
2008,02,06,09,13,6.40
2008,02,06,09,14,6.90
2008,02,06,09,15,5.20
2008,02,06,09,16,8.90
2008,02,06,09,17,11.00
2008,02,06,09,18,12.20
2008,02,06,09,19,10.00
2008,02,06,09,20,7.20
2008,02,06,09,21,7.50
2008,02,06,09,22,9.00
2008,02,06,09,23,11.00
2008,02,06,09,24,14.20
2008,02,06,09,25,14.30
2008,02,06,09,26,12.40
2008,02,06,09,27,15.20
2008,02,06,09,28,15.10
2008,02,06,09,29,12.00
2008,02,06,09,30,6.30
2008,02,06,09,31,2.90
2008,02,06,09,32,2.10
2008,02,06,09,33,10.50
2008,02,06,09,34,7.20
2008,02,06,09,35,7.40
2008,02,06,09,36,6.20
2008,02,06,09,37,8.30
2008,02,06,09,38,6.00
2008,02,06,09,39,6.10
2008,02,06,09,40,18.70
2008,02,06,09,41,10.80
2008,02,06,09,42,10.20
2008,02,06,09,43,6.80
2008,02,06,09,44,8.80
2008,02,06,09,45,10.80
2008,02,06,09,46,8.40
2008,02,06,09,47,10.10
2008,02,06,09,48,9.80
2008,02,06,09,49,9.30
2008,02,06,09,50,13.10
2008,02,06,09,51,10.70
2008,02,06,09,52,7.40
2008,02,06,09,53,7.40
2008,02,06,09,54,16.30
2008,02,06,09,55,9.40
2008,02,06,09,56,10.30
2008,02,06,09,57,14.80
2008,02,06,09,58,6.80
2008,02,06,09,59,9.60
2008,02,06,10,00,11.30
2008,02,06,10,01,4.00
2008,02,06,10,02,6.70
2008,02,06,10,03,7.70
2008,02,06,10,04,9.90
2008,02,06,10,05,11.90
2008,02,06,10,06,9.50
2008,02,06,10,07,7.10
2008,02,06,10,08,7.00
2008,02,06,10,09,6.50
2008,02,06,10,10,7.70
2008,02,06,10,11,8.00
2008,02,06,10,12,5.10
2008,02,06,10,13,5.00
2008,02,06,10,14,10.20
2008,02,06,10,15,10.70
2008,02,06,10,16,15.70
2008,02,06,10,17,13.00
2008,02,06,10,18,7.80
2008,02,06,10,19,4.90
2008,02,06,10,20,8.90
2008,02,06,10,21,10.90
2008,02,06,10,22,14.90
2008,02,06,10,23,15.20
2008,02,06,10,24,13.90
2008,02,06,10,25,13.60
2008,02,06,10,26,18.30
2008,02,06,10,27,21.60
2008,02,06,10,28,20.80
2008,02,06,10,29,19.60
2008,02,06,10,30,10.70
2008,02,06,10,31,14.50
2008,02,06,10,32,15.20
2008,02,06,10,33,18.80
2008,02,06,10,34,11.30
2008,02,06,10,35,17.30
2008,02,06,10,36,11.60
2008,02,06,10,37,18.10
2008,02,06,10,38,15.00
2008,02,06,10,39,16.20
2008,02,06,10,40,8.50
2008,02,06,10,41,9.80
2008,02,06,10,42,7.10
2008,02,06,10,43,5.00
2008,02,06,10,44,6.50
2008,02,06,10,45,6.40
2008,02,06,10,46,8.90
2008,02,06,10,47,4.00
2008,02,06,10,48,7.20
2008,02,06,10,49,7.40
2008,02,06,10,50,9.60
2008,02,06,10,51,6.10
2008,02,06,10,52,4.50
2008,02,06,10,53,2.40
2008,02,06,10,54,5.60
2008,02,06,10,55,4.60
2008,02,06,10,56,1.70
2008,02,06,10,57,7.20
2008,02,06,10,58,8.90
2008,02,06,10,59,7.40
2008,02,06,11,00,6.10
2008,02,06,11,01,3.60
2008,02,06,11,02,5.90
2008,02,06,11,03,8.90
2008,02,06,11,04,11.20
2008,02,06,11,05,11.70
2008,02,06,11,06,12.30
2008,02,06,11,07,7.40
2008,02,06,11,08,5.80
2008,02,06,11,09,5.70
2008,02,06,11,10,1.90
2008,02,06,11,11,4.50
2008,02,06,11,12,0.20
2008,02,06,11,13,3.80
2008,02,06,11,14,1.00
2008,02,06,11,15,2.10
2008,02,06,11,16,6.10
2008,02,06,11,17,3.60
2008,02,06,11,18,3.30
2008,02,06,11,19,4.60
2008,02,06,11,20,6.00
2008,02,06,11,21,11.40
2008,02,06,11,22,9.30
2008,02,06,11,23,12.80
2008,02,06,11,24,10.90
2008,02,06,11,25,7.50
2008,02,06,11,26,3.00
2008,02,06,11,27,2.10
2008,02,06,11,28,3.30
2008,02,06,11,29,10.10
2008,02,06,11,30,5.10
2008,02,06,11,31,3.30
2008,02,06,11,32,4.60
2008,02,06,11,33,1.40
2008,02,06,11,34,3.00
2008,02,06,11,35,4.50
2008,02,06,11,36,6.70
2008,02,06,11,37,7.10
2008,02,06,11,38,5.20
2008,02,06,11,39,7.40
2008,02,06,11,40,3.30
2008,02,06,11,41,6.60
2008,02,06,11,42,11.40
2008,02,06,11,43,14.90
2008,02,06,11,44,13.40
2008,02,06,11,45,15.10
2008,02,06,11,46,10.30
2008,02,06,11,47,13.60
2008,02,06,11,48,20.40
2008,02,06,11,49,13.80
2008,02,06,11,50,14.00
2008,02,06,11,51,13.60
2008,02,06,11,52,14.30
2008,02,06,11,53,17.80
2008,02,06,11,54,11.00
2008,02,06,11,55,18.00
2008,02,06,11,56,17.80
2008,02,06,11,57,20.40
2008,02,06,11,58,14.70
2008,02,06,11,59,14.60
2008,02,06,12,00,18.90
2008,02,06,12,01,17.00
2008,02,06,12,02,14.30
2008,02,06,12,03,12.60
2008,02,06,12,04,14.60
2008,02,06,12,05,11.20
2008,02,06,12,06,8.90
2008,02,06,12,07,10.50
2008,02,06,12,08,17.10
2008,02,06,12,09,11.80
2008,02,06,12,10,8.10
2008,02,06,12,11,7.10
2008,02,06,12,12,7.90
2008,02,06,12,13,10.20
2008,02,06,12,14,8.30
2008,02,06,12,15,12.80
2008,02,06,12,16,7.60
2008,02,06,12,17,13.00
2008,02,06,12,18,19.20
2008,02,06,12,19,7.10
2008,02,06,12,20,9.70
2008,02,06,12,21,12.30
2008,02,06,12,22,7.00
2008,02,06,12,23,9.00
2008,02,06,12,24,7.40
2008,02,06,12,25,7.50
2008,02,06,12,26,4.30
2008,02,06,12,27,4.90
2008,02,06,12,28,6.30
2008,02,06,12,29,10.20
2008,02,06,12,30,7.50
2008,02,06,12,31,8.20
2008,02,06,12,32,7.50
2008,02,06,12,33,8.20
2008,02,06,12,34,9.10
2008,02,06,12,35,13.20
2008,02,06,12,36,8.40
2008,02,06,12,37,6.80
2008,02,06,12,38,7.10
2008,02,06,12,39,12.10
2008,02,06,12,40,7.70
2008,02,06,12,41,12.20
2008,02,06,12,42,9.00
2008,02,06,12,43,7.10
2008,02,06,12,44,6.20
2008,02,06,12,45,5.60
2008,02,06,12,46,4.80
2008,02,06,12,47,7.60
2008,02,06,12,48,7.90
2008,02,06,12,49,6.80
2008,02,06,12,50,10.00
2008,02,06,12,51,11.20
2008,02,06,12,52,11.60
2008,02,06,12,53,8.10
2008,02,06,12,54,9.90
2008,02,06,12,55,8.80
2008,02,06,12,56,9.30
2008,02,06,12,57,5.70
2008,02,06,12,58,6.60
2008,02,06,12,59,6.60
2008,02,06,13,00,5.50
2008,02,06,13,01,5.50
2008,02,06,13,02,8.30
2008,02,06,13,03,11.10
2008,02,06,13,04,5.30
2008,02,06,13,05,3.40
2008,02,06,13,06,3.70
2008,02,06,13,07,4.20
2008,02,06,13,08,4.60
2008,02,06,13,09,1.60
2008,02,06,13,10,7.00
2008,02,06,13,11,11.90
2008,02,06,13,12,6.70
2008,02,06,13,13,7.00
2008,02,06,13,14,10.70
2008,02,06,13,15,4.60
2008,02,06,13,16,5.50
2008,02,06,13,17,5.70
2008,02,06,13,18,4.70
2008,02,06,13,19,2.90
2008,02,06,13,20,0.00
2008,02,06,13,21,1.60
2008,02,06,13,22,1.50
2008,02,06,13,23,1.90
2008,02,06,13,24,0.00
2008,02,06,13,25,0.00
2008,02,06,13,26,0.00
2008,02,06,13,27,0.00
2008,02,06,13,28,0.20
2008,02,06,13,29,0.00
2008,02,06,13,30,0.20
2008,02,06,13,31,1.20
2008,02,06,13,32,2.60
2008,02,06,13,33,0.50
2008,02,06,13,34,0.10
2008,02,06,13,35,1.50
2008,02,06,13,36,1.00
2008,02,06,13,37,0.20
2008,02,06,13,38,1.20
2008,02,06,13,39,0.40
2008,02,06,13,40,2.40
2008,02,06,13,41,3.60
2008,02,06,13,42,2.50
2008,02,06,13,43,3.80
2008,02,06,13,44,3.00
2008,02,06,13,45,0.40
2008,02,06,13,46,0.40
2008,02,06,13,47,0.10
2008,02,06,13,48,0.70
2008,02,06,13,49,0.20
2008,02,06,13,50,1.10
2008,02,06,13,51,1.70
2008,02,06,13,52,1.90
2008,02,06,13,53,1.80
2008,02,06,13,54,0.70
2008,02,06,13,55,1.00
2008,02,06,13,56,0.20
2008,02,06,13,57,0.00
2008,02,06,13,58,0.00
2008,02,06,13,59,0.30
2008,02,06,14,00,1.00
2008,02,06,14,01,0.00
2008,02,06,14,02,0.10
2008,02,06,14,03,0.00
2008,02,06,14,04,2.40
2008,02,06,14,05,3.00
2008,02,06,14,06,1.10
2008,02,06,14,07,2.80
2008,02,06,14,08,1.80
2008,02,06,14,09,1.50
2008,02,06,14,10,1.90
2008,02,06,14,11,0.40
2008,02,06,14,12,0.30
2008,02,06,14,13,1.10
2008,02,06,14,14,2.80
2008,02,06,14,15,1.60
2008,02,06,14,16,0.50
2008,02,06,14,17,3.60
2008,02,06,14,18,5.20
2008,02,06,14,19,4.60
2008,02,06,14,20,1.90
2008,02,06,14,21,0.50
2008,02,06,14,22,2.00
2008,02,06,14,23,0.10
2008,02,06,14,24,2.10
2008,02,06,14,25,3.40
2008,02,06,14,26,2.80
2008,02,06,14,27,1.80
2008,02,06,14,28,2.80
2008,02,06,14,29,0.40
2008,02,06,14,30,0.90
2008,02,06,14,31,2.00
2008,02,06,14,32,1.90
2008,02,06,14,33,0.00
2008,02,06,14,34,0.60
2008,02,06,14,35,1.20
2008,02,06,14,36,0.00
2008,02,06,14,37,0.50
2008,02,06,14,38,0.10
2008,02,06,14,39,2.60
2008,02,06,14,40,1.20
2008,02,06,14,41,0.70
2008,02,06,14,42,0.10
2008,02,06,14,43,0.00
2008,02,06,14,44,0.00
2008,02,06,14,45,0.00
2008,02,06,14,46,0.00
2008,02,06,14,47,0.00
2008,02,06,14,48,0.60
2008,02,06,14,49,1.90
2008,02,06,14,50,1.70
2008,02,06,14,51,2.80
2008,02,06,14,52,2.60
2008,02,06,14,53,0.60
2008,02,06,14,54,0.10
2008,02,06,14,55,0.00
2008,02,06,14,56,0.10
2008,02,06,14,57,0.00
2008,02,06,14,58,0.00
2008,02,06,14,59,0.00
2008,02,06,15,00,0.00
2008,02,06,15,01,0.00
2008,02,06,15,02,0.00
2008,02,06,15,03,0.00
2008,02,06,15,04,0.00
2008,02,06,15,05,0.00
2008,02,06,15,06,0.00
2008,02,06,15,07,0.00
2008,02,06,15,08,0.00
2008,02,06,15,09,0.00
2008,02,06,15,10,0.00
2008,02,06,15,11,0.00
2008,02,06,15,12,0.00
2008,02,06,15,13,0.40
2008,02,06,15,14,0.90
2008,02,06,15,15,1.70
2008,02,06,15,16,4.00
2008,02,06,15,17,3.60
2008,02,06,15,18,2.30
2008,02,06,15,19,2.60
2008,02,06,15,20,1.60
2008,02,06,15,21,1.10
2008,02,06,15,22,1.20
2008,02,06,15,23,2.80
2008,02,06,15,24,2.80
2008,02,06,15,25,1.90
2008,02,06,15,26,0.60
2008,02,06,15,27,1.20
2008,02,06,15,28,0.30
2008,02,06,15,29,0.30
2008,02,06,15,30,0.00
2008,02,06,15,31,0.00
2008,02,06,15,32,0.00
2008,02,06,15,33,0.00
2008,02,06,15,34,0.00
2008,02,06,15,35,0.00
2008,02,06,15,36,0.00
2008,02,06,15,37,0.00
2008,02,06,15,38,0.00
2008,02,06,15,39,0.00
2008,02,06,15,40,0.00
2008,02,06,15,41,0.20
2008,02,06,15,42,2.10
2008,02,06,15,43,0.60
2008,02,06,15,44,0.20
2008,02,06,15,45,0.40
2008,02,06,15,46,0.60
2008,02,06,15,47,0.00
2008,02,06,15,48,0.10
2008,02,06,15,49,0.50
2008,02,06,15,50,0.00
2008,02,06,15,51,0.00
2008,02,06,15,52,0.40
2008,02,06,15,53,0.60
2008,02,06,15,54,1.90
2008,02,06,15,55,3.30
2008,02,06,15,56,2.20
2008,02,06,15,57,1.80
2008,02,06,15,58,0.80
2008,02,06,15,59,0.70
2008,02,06,16,00,0.00
2008,02,06,16,01,0.00
2008,02,06,16,02,0.50
2008,02,06,16,03,0.00
2008,02,06,16,04,0.00
2008,02,06,16,05,0.00
2008,02,06,16,06,0.00
2008,02,06,16,07,0.00
2008,02,06,16,08,0.20
2008,02,06,16,09,0.00
2008,02,06,16,10,0.90
2008,02,06,16,11,0.10
2008,02,06,16,12,0.80
2008,02,06,16,13,0.00
2008,02,06,16,14,0.00
2008,02,06,16,15,0.00
2008,02,06,16,16,0.50
2008,02,06,16,17,0.70
2008,02,06,16,18,0.00
2008,02,06,16,19,0.10
2008,02,06,16,20,0.00
2008,02,06,16,21,0.00
2008,02,06,16,22,0.00
2008,02,06,16,23,0.00
2008,02,06,16,24,0.00
2008,02,06,16,25,0.00
2008,02,06,16,26,1.50
2008,02,06,16,27,2.20
2008,02,06,16,28,2.60
2008,02,06,16,29,0.60
2008,02,06,16,30,0.20
2008,02,06,16,31,1.20
2008,02,06,16,32,0.10
2008,02,06,16,33,0.30
2008,02,06,16,34,1.30
2008,02,06,16,35,0.00
2008,02,06,16,36,0.00
2008,02,06,16,37,0.20
2008,02,06,16,38,0.00
2008,02,06,16,39,2.50
2008,02,06,16,40,1.10
2008,02,06,16,41,1.60
2008,02,06,16,42,1.00
2008,02,06,16,43,0.00
2008,02,06,16,44,0.00
2008,02,06,16,45,0.00
2008,02,06,16,46,0.00
2008,02,06,16,47,0.00
2008,02,06,16,48,0.00
2008,02,06,16,49,0.00
2008,02,06,16,50,0.00
2008,02,06,16,51,0.00
2008,02,06,16,52,0.00
2008,02,06,16,53,0.00
2008,02,06,16,54,0.00
2008,02,06,16,55,0.00
2008,02,06,16,56,0.00
2008,02,06,16,57,0.00
2008,02,06,16,58,0.00
2008,02,06,16,59,0.00
2008,02,06,17,00,0.00
2008,02,06,17,01,0.00
2008,02,06,17,02,0.60
2008,02,06,17,03,2.00
2008,02,06,17,04,0.50
2008,02,06,17,05,0.80
2008,02,06,17,06,1.40
2008,02,06,17,07,1.50
2008,02,06,17,08,2.10
2008,02,06,17,09,3.50
2008,02,06,17,10,2.70
2008,02,06,17,11,2.80
2008,02,06,17,12,2.20
2008,02,06,17,13,3.00
2008,02,06,17,14,2.80
2008,02,06,17,15,2.40
2008,02,06,17,16,2.10
2008,02,06,17,17,4.40
2008,02,06,17,18,3.70
2008,02,06,17,19,2.00
2008,02,06,17,20,4.30
2008,02,06,17,21,2.90
2008,02,06,17,22,1.10
2008,02,06,17,23,4.20
2008,02,06,17,24,2.70
2008,02,06,17,25,2.50
2008,02,06,17,26,5.10
2008,02,06,17,27,4.20
2008,02,06,17,28,3.20
2008,02,06,17,29,2.80
2008,02,06,17,30,0.70
2008,02,06,17,31,2.10
2008,02,06,17,32,2.90
2008,02,06,17,33,0.00
2008,02,06,17,34,0.60
2008,02,06,17,35,0.60
2008,02,06,17,36,0.50
2008,02,06,17,37,1.10
2008,02,06,17,38,1.70
2008,02,06,17,39,2.80
2008,02,06,17,40,2.20
2008,02,06,17,41,2.00
2008,02,06,17,42,3.20
2008,02,06,17,43,1.50
2008,02,06,17,44,0.10
2008,02,06,17,45,1.20
2008,02,06,17,46,3.90
2008,02,06,17,47,2.10
2008,02,06,17,48,0.20
2008,02,06,17,49,2.70
2008,02,06,17,50,1.50
2008,02,06,17,51,0.50